Skip Navigation Linkswww.weather.gov 
NOAA logo - Click to go to the NOAA homepage National Weather Service Forecast Office   NWS logo - Click to go to the NWS homepage    
Los Angeles, California
navigation bar decoration      
spacer
Printer Friendly  |   Go Back  |  Version: Current   1   2   3   4   5   6   7   8   9   10   |  Font:  A A A  |  

HOURLY WEATHER ROUNDUP
That Version is not available. Latest version shown.
 
 ASUS46 KSTO 040209
RWRCA

NORTHERN AND CENTRAL CA REGIONAL WEATHER ROUNDUP
NATIONAL WEATHER SERVICE SACRAMENTO CA
600 PM PST TUE MAR 03 2015

NOTE: FAIR INDICATES FEW OR NO CLOUDS BELOW 12,000 FEET WITH NO
SIGNIFICANT WEATHER AND/OR OBSTRUCTIONS TO VISIBILITY.

CAZ001-003-040300-
NORTHWEST AREA

CITY SKY/WX TMP DP RH WIND PRES REMARKS
CRESCENT CITY CLEAR 50 42 74 N10 30.05S
ARCATA NOT AVBL
SHELTER COVE NOT AVBL
UKIAH MOCLDY 58 34 40 VRB3 29.97R
$$

CAZ006-505>513-040300-
BAY AREA

CITY SKY/WX TMP DP RH WIND PRES REMARKS
SANTA ROSA MOCLDY 58 38 47 S3 29.96S
SAN RAFAEL N/A 63 MM MM MISG
NAPA MOCLDY 55 44 66 W9 29.97R
CONCORD MOCLDY 60 43 53 W7 29.96S
OAKLAND CITY N/A 62 MM MM MISG
OAKLAND MOCLDY 58 45 62 W13 29.97S
SAN FRAN CITY N/A 55 MM 71 MISG
SAN FRAN ARPT MOCLDY 56 51 84 W20 29.98S
LIVERMORE PTCLDY 59 45 59 W10 29.96R
HAYWARD MOCLDY 53 48 83 W7 29.97S
REDWOOD CITY N/A MM MM MM MISG
MOFFETT ARPT PTCLDY 58 49 72 NW8 29.97S
SAN JOSE ARPT MOCLDY 58 46 64 NW12 29.96S
$$
CAZ034-037-514>518-040300-
CENTRAL COAST

CITY SKY/WX TMP DP RH WIND PRES REMARKS
WATSONVILLE PTCLDY 60 51 72 CALM 29.97R
SALINAS MOCLDY 58 49 72 SW8 29.98S
MONTEREY MOCLDY 55 48 76 SW6 29.99S
PT PIEDRAS BLS NOT AVBL
SAN LUIS OBISP PTCLDY 54 48 80 NW16 29.94R
SANTA MARIA PTCLDY 56 45 66 W12 29.93R
$$
CAZ015-016-040300-
NORTHERN SACRAMENTO VALLEY

CITY SKY/WX TMP DP RH WIND PRES REMARKS
REDDING PTCLDY 61 30 31 W5 29.95S
RED BLUFF PTCLDY 60 29 30 CALM 29.96S
OROVILLE PTCLDY 58 32 37 NW5 29.96S
$$
CAZ016>018-040300-
SOUTHERN SACRAMENTO VALLEY

CITY SKY/WX TMP DP RH WIND PRES REMARKS
AUBURN CLEAR 55 34 44 CALM 29.96S
BEALE AFB CLEAR 59 37 43 NW10 29.94R
LINCOLN FAIR 55 37 50 NW6 29.94S
MARYSVILLE PTCLDY 60 32 34 N5 29.95S
SAC INTL ARPT MOCLDY 56 38 50 NW7 29.95R
MATHER AIRPORT NOT AVBL
DOWNTOWN SAC N/A 63 MM MM MISG
SAC EXEC ARPT PTCLDY 60 36 40 NW5 29.95R
VACAVILLE MOCLDY 59 45 59 SW5 29.96S
TRAVIS AFB CLEAR 58 47 66 W10 29.94R
$$
CAZ019>021-040300-
SAN JOAQUIN VALLEY

CITY SKY/WX TMP DP RH WIND PRES REMARKS
STOCKTON PTCLDY 60 40 47 NW9 29.94R
MODESTO PTCLDY 61 41 47 NW12 29.94R
MERCED CLEAR 57 43 59 NW9 29.94R
LEMOORE PTCLDY 58 41 53 N7 29.96R
FRESNO PTCLDY 59 41 51 N6 29.95R
HANFORD CLEAR 60 40 47 NW7 29.95R
PORTERVILLE PTCLDY 55 43 62 W6 29.95S
BAKERSFIELD CLEAR 58 41 53 N5 29.94S
$$
CAZ011-012-071-040300-
NORTHERN MOUNTAINS

CITY SKY/WX TMP DP RH WIND PRES REMARKS
YREKA CLEAR 50 27 40 CALM 30.02S
MOUNT SHASTA CLEAR 45 24 43 CALM 30.01R
ALTURAS CLEAR 42 17 36 CALM 30.02R
$$
CAZ011-012-071-040300-
SIERRA NEVADA MTNS

CITY SKY/WX TMP DP RH WIND PRES REMARKS
BLUE CANYON CLEAR 40 31 70 W5 29.97S
TRUCKEE CLEAR 32 21 64 N3 29.99R
TAHOE VLY ARPT CLEAR 33 20 58 CALM 29.97R
MAMMOTH LAKES FAIR 32 16 51 NW10 29.96R WCI 24
$$



Webmaster
US Dept of Commerce
National Oceanic and Atmospheric Administration
National Weather Service
Los Angeles/Oxnard Weather Forecast Office
520 North Elevar Street
Oxnard, CA 93030

Tel: (805) 988-6610

Disclaimer
Information Quality
Credits
Glossary
Organization
Privacy Policy
Freedom of Information Act
About Us
Career Opportunities